Pelagos — SZSW — position and weather

sailwx.info

Track history (hours):
 
Tides and Currents Weather Stations Pressure Air Temp Water Temp Dewpoint Dewpoint Depression Visibility Wind Speed Wind Dir Waves Ship Positions

Pelagos

Last reported at 2014-Oct-30 08:33 UTC. Time now 2014-Oct-31 08:35 UTC.
Position N 41°26' E 029°41'.

Length 249 m; draft 8 m.

Type: Ship. MMSI: 240335000.

Date/timePositionNaut miles runAvg speedWind from/ knotsBaromVisibWave heightAir tempDewpointWater temp
2014-Oct-30 08:33N 41°26' E 029°41'1010.3
2014-Oct-30 07:33N 41°22' E 029°29'1111.0
2014-Oct-30 06:33N 41°17' E 029°15'2110.3
2014-Oct-30 04:32N 40°60' E 028°60'9 8.8
2014-Oct-30 03:33N 40°52' E 028°54'8 1.0
2014-Oct-29 19:27N 40°46' E 028°48'2 1.4
2014-Oct-29 18:21N 40°47' E 028°50'2 2.5
2014-Oct-29 17:33N 40°48' E 028°51'151 9.9
2014-Oct-29 02:17N 39°54' E 025°47'156 4.8
2014-Oct-27 17:30N 37°38' E 024°08'7 0.6
2014-Oct-27 07:13N 37°38' E 024°00'14 8.3
2014-Oct-27 05:32N 37°24' E 024°00'37 9.3
2014-Oct-27 01:33N 36°52' E 023°37'37810.0
2014-Oct-25 11:33N 37°49' E 015°47'23 9.5
2014-Oct-25 09:05N 38°10' E 015°35'33410.8
2014-Oct-24 02:16N 42°03' E 010°22'6110.7
2014-Oct-23 20:33N 42°55' E 009°39'1111.0
2014-Oct-23 19:33N 43°05' E 009°34'1111.0
2014-Oct-23 18:33N 43°16' E 009°31'1111.0
2014-Oct-23 17:34N 43°27' E 009°28'1111.0
2014-Oct-23 16:33N 43°38' E 009°24'1110.9
2014-Oct-23 15:33N 43°47' E 009°17'1111.0
2014-Oct-23 14:33N 43°56' E 009°08'1110.9
2014-Oct-23 13:33N 44°05' E 008°59'1110.9
2014-Oct-23 12:34N 44°14' E 008°50'1010.0
2014-Oct-23 11:33N 44°23' E 008°47'3 0.1
2014-Oct-21 12:07N 44°25' E 008°50'2 3.5
2014-Oct-21 11:33N 44°24' E 008°48'5 4.5
2014-Oct-21 10:33N 44°20' E 008°46'1211.2
2014-Oct-21 09:30N 44°08' E 008°45'1 1.4
2014-Oct-21 08:33N 44°07' E 008°45'0 0.3
2014-Oct-21 07:33N 44°07' E 008°45'0 0.2
2014-Oct-21 06:33N 44°06' E 008°45'0 0.2
2014-Oct-21 05:33N 44°06' E 008°45'0 0.3
2014-Oct-21 04:33N 44°06' E 008°45'0 0.3
2014-Oct-21 03:33N 44°06' E 008°45'0 0.2
2014-Oct-21 02:33N 44°05' E 008°45'0 0.2
2014-Oct-21 01:33N 44°05' E 008°45'0 0.2
2014-Oct-21 00:33N 44°05' E 008°45'0 0.2
2014-Oct-20 23:33N 44°05' E 008°45'0 0.2
2014-Oct-20 22:33N 44°05' E 008°45'0 0.3
2014-Oct-20 21:33N 44°04' E 008°45'0 0.3
2014-Oct-20 20:33N 44°04' E 008°45'0 0.3
2014-Oct-20 19:33N 44°04' E 008°45'2 2.2
2014-Oct-20 18:33N 44°06' E 008°45'3 2.9
2014-Oct-20 17:33N 44°09' E 008°44'0 0.3
2014-Oct-20 16:33N 44°09' E 008°45'0 0.3
2014-Oct-20 15:33N 44°09' E 008°45'0 0.3
2014-Oct-20 14:33N 44°08' E 008°45'0 0.3
2014-Oct-20 13:33N 44°08' E 008°45'0 0.2
2014-Oct-20 12:33N 44°08' E 008°44'0 0.2
2014-Oct-20 11:33N 44°08' E 008°44'0 0.1
2014-Oct-20 10:33N 44°08' E 008°44'0 0.1
2014-Oct-20 09:33N 44°08' E 008°44'0 0.2
2014-Oct-20 08:33N 44°08' E 008°44'  
Track history (hours):
 
Tides and Currents Weather Stations Pressure Air Temp Water Temp Dewpoint Dewpoint Depression Visibility Wind Speed Wind Dir Waves Ship Positions

Pelagos

Last reported at 2014-Oct-30 08:33 UTC. Time now 2014-Oct-31 08:35 UTC.
Position N 41°26' E 029°41'.

Length 249 m; draft 8 m.

Type: Ship. MMSI: 240335000.

Date/timePositionNaut miles runAvg speedWind from/ knotsBaromVisibWave heightAir tempDewpointWater temp
2014-Oct-30 08:33N 41°26' E 029°41'1010.3
2014-Oct-30 07:33N 41°22' E 029°29'1111.0
2014-Oct-30 06:33N 41°17' E 029°15'2110.3
2014-Oct-30 04:32N 40°60' E 028°60'9 8.8
2014-Oct-30 03:33N 40°52' E 028°54'8 1.0
2014-Oct-29 19:27N 40°46' E 028°48'2 1.4
2014-Oct-29 18:21N 40°47' E 028°50'2 2.5
2014-Oct-29 17:33N 40°48' E 028°51'151 9.9
2014-Oct-29 02:17N 39°54' E 025°47'156 4.8
2014-Oct-27 17:30N 37°38' E 024°08'7 0.6
2014-Oct-27 07:13N 37°38' E 024°00'14 8.3
2014-Oct-27 05:32N 37°24' E 024°00'37 9.3
2014-Oct-27 01:33N 36°52' E 023°37'37810.0
2014-Oct-25 11:33N 37°49' E 015°47'23 9.5
2014-Oct-25 09:05N 38°10' E 015°35'33410.8
2014-Oct-24 02:16N 42°03' E 010°22'6110.7
2014-Oct-23 20:33N 42°55' E 009°39'1111.0
2014-Oct-23 19:33N 43°05' E 009°34'1111.0
2014-Oct-23 18:33N 43°16' E 009°31'1111.0
2014-Oct-23 17:34N 43°27' E 009°28'1111.0
2014-Oct-23 16:33N 43°38' E 009°24'1110.9
2014-Oct-23 15:33N 43°47' E 009°17'1111.0
2014-Oct-23 14:33N 43°56' E 009°08'1110.9
2014-Oct-23 13:33N 44°05' E 008°59'1110.9
2014-Oct-23 12:34N 44°14' E 008°50'1010.0
2014-Oct-23 11:33N 44°23' E 008°47'3 0.1
2014-Oct-21 12:07N 44°25' E 008°50'2 3.5
2014-Oct-21 11:33N 44°24' E 008°48'5 4.5
2014-Oct-21 10:33N 44°20' E 008°46'1211.2
2014-Oct-21 09:30N 44°08' E 008°45'1 1.4
2014-Oct-21 08:33N 44°07' E 008°45'0 0.3
2014-Oct-21 07:33N 44°07' E 008°45'0 0.2
2014-Oct-21 06:33N 44°06' E 008°45'0 0.2
2014-Oct-21 05:33N 44°06' E 008°45'0 0.3
2014-Oct-21 04:33N 44°06' E 008°45'0 0.3
2014-Oct-21 03:33N 44°06' E 008°45'0 0.2
2014-Oct-21 02:33N 44°05' E 008°45'0 0.2
2014-Oct-21 01:33N 44°05' E 008°45'0 0.2
2014-Oct-21 00:33N 44°05' E 008°45'0 0.2
2014-Oct-20 23:33N 44°05' E 008°45'0 0.2
2014-Oct-20 22:33N 44°05' E 008°45'0 0.3
2014-Oct-20 21:33N 44°04' E 008°45'0 0.3
2014-Oct-20 20:33N 44°04' E 008°45'0 0.3
2014-Oct-20 19:33N 44°04' E 008°45'2 2.2
2014-Oct-20 18:33N 44°06' E 008°45'3 2.9
2014-Oct-20 17:33N 44°09' E 008°44'0 0.3
2014-Oct-20 16:33N 44°09' E 008°45'0 0.3
2014-Oct-20 15:33N 44°09' E 008°45'0 0.3
2014-Oct-20 14:33N 44°08' E 008°45'0 0.3
2014-Oct-20 13:33N 44°08' E 008°45'0 0.2
2014-Oct-20 12:33N 44°08' E 008°44'0 0.2
2014-Oct-20 11:33N 44°08' E 008°44'0 0.1
2014-Oct-20 10:33N 44°08' E 008°44'0 0.1
2014-Oct-20 09:33N 44°08' E 008°44'0 0.2
2014-Oct-20 08:33N 44°08' E 008°44'  

Dump ship's entire track history